Location: Unspecified
(51.5147°N, 7.4673°E)
Time: 18:11:41
(UTC+01:00)

Vanguard 1 - Pass Details

Date: 22 February 2026
Orbit: 653 x 3818 km, 34.2° (Epoch: 5 March)

Event Time Altitude Azimuth Distance (km) Brightness Sun altitude
Rises 19:54:41 0° 268° (W) 5,806 15.6 -18.8°
Reaches altitude 10° 19:58:40 10° 258° (WSW) 5,215 14.8 -19.4°
Maximum altitude 20:11:52 30° 205° (SSW) 4,779 13.6 -21.5°
Drops below altitude 10° 20:29:27 10° 155° (SSE) 6,906 14.0 -24.1°
Enters shadow 20:34:07 - 148° (SSE) 7,624 14.2 -24.8°
